Location: Asheville, NC
(35.6000°N, 82.5500°W)
Time: 00:26:11
(UTC-04:00)

Vanguard 1 Rocket - Pass Details

Date: 10 March 2018
Orbit: 653 x 4224 km, 34.3° (Epoch: 24 June)

Event Time Altitude Azimuth Distance (km) Brightness Sun altitude
Rises 16:33:53 0° 196° (SSW) 3,425 10.9 22.7°
Reaches altitude 10° 16:36:42 10° 178° (S) 2,782 10.2 22.2°
Maximum altitude 16:41:31 20° 131° (SE) 2,651 9.6 21.3°
Drops below altitude 10° 16:48:34 10° 89° (E) 4,279 10.3 20.0°
Sets 16:54:23 0° 76° (ENE) 6,008 11.0 18.8°
